Maastricht, Netherlands

1:36 PM CET on January 18, 2017 (GMT +0100)
Maastricht-Aachen

Weather History for EHBK - November, 2013

Change the Weather History Date:

Thursday, November 7, 2013

  Actual Average Record
Temperature  
Mean Temperature 54 °F -  
Max Temperature 57 °F 46 °F 66 °F (2015)
Min Temperature 50 °F 36 °F 35 °F (1998)
Degree Days  
Heating Degree Days 12    
Growing Degree Days 4 (Base 50)    
Moisture  
Dew Point 52 °F    
Average Humidity 93    
Maximum Humidity 100    
Minimum Humidity 81    
Precipitation  
Precipitation 0.35 in 0.09 in - ()
Sea Level Pressure  
Sea Level Pressure 29.73 in    
Wind  
Wind Speed 15 mph ()    
Max Wind Speed 25 mph    
Max Gust Speed 36 mph    
Visibility 5.3 miles    
Events Rain    
Averages and records for this station are not official NWS values.
T = Trace of Precipitation, MM = Missing Value Source: Averaged Metar Reports

Daily Weather History Graph

Daily Weather History Graph

Search for Another Location

Airport or City:

Trip Planner

Search our weather history database for the weather conditions in past years. The results will help you decide how hot, cold, wet, or windy it might be!

Date:

Astronomy

Nov. 07, 2013 Rise Set
Actual Time 7:39 AM CET 5:01 PM CET
Civil Twilight 7:03 AM CET 5:36 PM CET
Nautical Twilight 6:24 AM CET 6:15 PM CET
Astronomical Twilight 5:45 AM CET 6:54 PM CET
Moon 11:41 AM CET (11/7) 8:48 PM CET (11/7)
Length of Visible Light 10h 32m
Length of Day
9h 21m
Waxing Crescent, 20% of the Moon is Illuminated
Nov 7
Waxing Crescent
Nov 10
First Quarter
Nov 17
Full
Nov 25
Last Quarter
Dec 3
New

Hourly Weather History & Observations

Time (CET) Temp. Dew Point Humidity Pressure Visibility Wind Dir Wind Speed Gust Speed Precip Events Conditions
12:25 AM 57.2 °F 51.8 °F 82% 29.65 in 6.2 mi SW 21.9 mph - N/A   Overcast
12:55 AM 57.2 °F 51.8 °F 82% 29.65 in 6.2 mi SW 19.6 mph - N/A   Overcast
1:00 AM 57 °F 53 °F 81% 29.66 in 15 mi SW 20.1 mph - - Rain Light Rain Showers
1:25 AM 55.4 °F 53.6 °F 94% 29.65 in 6.2 mi SW 21.9 mph - N/A Rain Light Rain
1:55 AM 57.2 °F 51.8 °F 82% 29.65 in 6.2 mi SW 19.6 mph 31.1 mph N/A   Overcast
2:25 AM 57.2 °F 51.8 °F 82% 29.65 in 6.2 mi SW 20.7 mph - N/A   Overcast
2:55 AM 57.2 °F 51.8 °F 82% 29.65 in 6.2 mi SW 23.0 mph - N/A   Overcast
3:25 AM 57.2 °F 51.8 °F 82% 29.65 in 6.2 mi SW 24.2 mph - N/A   Overcast
3:55 AM 57.2 °F 51.8 °F 82% 29.65 in 6.2 mi SW 23.0 mph - N/A   Overcast
4:00 AM 57 °F 53 °F 81% 29.67 in 12 mi SW 24.6 mph - - Rain Light Rain Showers
4:25 AM 57.2 °F 53.6 °F 88% 29.65 in 6.2 mi SW 23.0 mph 34.5 mph N/A   Overcast
4:55 AM 57.2 °F 53.6 °F 88% 29.65 in 6.2 mi SW 24.2 mph 35.7 mph N/A   Overcast
5:25 AM 57.2 °F 53.6 °F 88% 29.65 in 6.2 mi SW 23.0 mph - N/A   Overcast
5:55 AM 57.2 °F 53.6 °F 88% 29.65 in 6.2 mi SW 25.3 mph - N/A   Overcast
6:25 AM 57.2 °F 53.6 °F 88% 29.65 in 6.2 mi SW 25.3 mph - N/A   Overcast
6:55 AM 57.2 °F 53.6 °F 88% 29.65 in 6.2 mi SW 24.2 mph - N/A   Overcast
7:25 AM 57.2 °F 53.6 °F 88% 29.68 in 6.2 mi SW 23.0 mph 35.7 mph N/A   Overcast
7:55 AM 55.4 °F 53.6 °F 94% 29.68 in - SW 23.0 mph - N/A Rain Light Rain
8:25 AM 55.4 °F 53.6 °F 94% 29.68 in 6.2 mi SW 20.7 mph - N/A   Overcast
8:55 AM 55.4 °F 53.6 °F 94% 29.71 in - SW 21.9 mph - N/A   Drizzle
9:25 AM 55.4 °F 55.4 °F 100% 29.71 in 3.7 mi SW 20.7 mph - N/A Rain Light Rain
9:55 AM 57.2 °F 55.4 °F 94% 29.71 in - SW 19.6 mph - N/A   Light Drizzle
10:00 AM 56 °F 54 °F 93% 29.73 in 8 mi SW 20.1 mph - - Rain Rain
10:25 AM 57.2 °F 53.6 °F 88% 29.71 in 6.2 mi SW 19.6 mph - N/A   Overcast
10:55 AM 57.2 °F 53.6 °F 88% 29.74 in 5.0 mi SW 19.6 mph - N/A   Overcast
11:25 AM 55.4 °F 55.4 °F 100% 29.74 in - SW 19.6 mph - N/A Rain Light Rain
11:55 AM 55.4 °F 55.4 °F 100% 29.74 in 1.4 mi West 11.5 mph - N/A Rain Rain
12:25 PM 53.6 °F 53.6 °F 100% 29.74 in 1.6 mi NW 6.9 mph - N/A Rain Rain
12:55 PM 53.6 °F 53.6 °F 100% 29.77 in - WNW 4.6 mph - N/A Rain Light Rain
1:00 PM 53 °F 53 °F 99% 29.78 in 3 mi WNW 4.5 mph - - Rain Rain
1:25 PM 53.6 °F 51.8 °F 94% 29.77 in 2.5 mi West 4.6 mph - N/A   Heavy Drizzle
1:55 PM 53.6 °F 51.8 °F 94% 29.77 in 1.6 mi West 4.6 mph - N/A Rain Rain
2:25 PM 53.6 °F 51.8 °F 94% 29.77 in 2.5 mi West 4.6 mph - N/A   Drizzle
2:55 PM 53.6 °F 51.8 °F 94% 29.77 in - West 4.6 mph - N/A   Heavy Drizzle
3:25 PM 51.8 °F 51.8 °F 100% 29.77 in 3.1 mi WSW 4.6 mph - N/A   Drizzle
3:55 PM 51.8 °F 51.8 °F 100% 29.77 in 6.2 mi SW 6.9 mph - N/A   Drizzle
4:00 PM 52 °F 51 °F 97% 29.80 in 7 mi SW 6.7 mph - - Rain Light Rain
4:25 PM 51.8 °F 51.8 °F 100% 29.77 in 5.0 mi SW 5.8 mph - N/A Rain Light Rain
4:55 PM 51.8 °F 51.8 °F 100% 29.77 in 6.2 mi SW 5.8 mph - N/A Rain Light Rain
5:25 PM 51.8 °F 51.8 °F 100% 29.77 in 3.7 mi SW 5.8 mph - N/A Rain Light Rain
5:55 PM 51.8 °F 50.0 °F 94% 29.77 in 6.2 mi SW 6.9 mph - N/A Rain Light Rain
6:25 PM 50.0 °F 50.0 °F 100% 29.77 in 4.3 mi SSW 5.8 mph - N/A Rain Light Rain
6:55 PM 50.0 °F 50.0 °F 100% 29.80 in 4.3 mi SW 4.6 mph - N/A Rain Light Rain
7:00 PM 51 °F 50 °F 94% 29.81 in 4 mi SW 4.5 mph - - Rain Rain
7:25 PM 50.0 °F 50.0 °F 100% 29.80 in 5.6 mi SW 3.5 mph - N/A Rain Light Rain
7:55 PM 50.0 °F 50.0 °F 100% 29.77 in - South 2.3 mph - N/A   Drizzle
8:25 PM 50.0 °F 50.0 °F 100% 29.77 in - South 2.3 mph - N/A   Drizzle
8:55 PM 50.0 °F 50.0 °F 100% 29.77 in 1.7 mi SSW 3.5 mph - N/A Rain Rain
9:25 PM 50.0 °F 50.0 °F 100% 29.77 in 1.6 mi South 3.5 mph - N/A Rain Light Rain
9:55 PM 50.0 °F 50.0 °F 100% 29.77 in - West 3.5 mph - N/A Rain Rain
10:00 PM 50 °F 50 °F 98% 29.80 in 2 mi WNW 4.5 mph - - Rain Rain
10:25 PM 50.0 °F 50.0 °F 100% 29.77 in - WNW 3.5 mph - N/A Rain Rain Showers
10:55 PM 50.0 °F 48.2 °F 94% 29.77 in - Variable 2.3 mph - N/A Rain Light Rain Showers
11:25 PM 50.0 °F 48.2 °F 94% 29.77 in - NNW 1.2 mph - N/A Rain Light Rain Showers
11:55 PM 50.0 °F 48.2 °F 94% 29.77 in - WNW 3.5 mph - N/A Rain Light Rain